Weather in Port Talbot

United Kingdom     51°35′10″N   3°47′16″W
temp.,
°C
wind,
m/s
gust,
m/s
humid.,
%
clouds,
%
prec.,
mm/h
press.,
hPa
HPBL,
m
28 november, sun
sun2800:00+4n8135858 0.0 1011998
03:00+4n51257100 0.0 1011848
06:00+4nw61060100 0.0 1010761
09:00+5nnw4781100 0.0 1010551
12:00+7nw4774100 0.1 1009680
15:00+7wnw78706 0.0 1008923
18:00+7nw8138299 0.2 10081083
21:00+4nne6107612 0.2 1011702
29 november, mon
mon2900:00+4nne58685 0.2 1013520
03:00+4nne3568100 0.0 1014321
06:00+4e0066100 0.0 1015207
09:00+4n016284 0.0 1017292
12:00+6wnw2359100 0.0 1017391
15:00+7w3569100 0.0 1017712
18:00+8wnw5785100 0.1 1017588
21:00+10wnw58846 0.1 1017539
30 november, tue
tue3000:00+10wnw7128453 0.1 1017576
03:00+11w101485100 0.0 1017634
06:00+11wnw91390100 0.1 1016735
09:00+11wnw7119058 0.2 1016590
12:00+11w91388100 0.2 1015689
15:00+12w111582100 0.1 1012775
18:00+12wsw121786100 0.3 1008956
21:00+11sw172293100 1.8 10021276
1 december, wed
wed100:00+12w16218122 3.4 9981185
03:00+10wnw131984100 0.9 10001469
06:00+9wnw13187329 1.3 10011470
09:00+9wnw121572100 0.3 10021594
12:00+8nw13168099 0.6 10021417
15:00+8nnw1115707 0.3 10031418
18:00+7nnw101565100 0.3 10051496
21:00+6nnw813624 0.0 10071154
2 december, thu
thu200:00+5nnw610610 0.0 1009769
03:00+5nnw59615 0.0 1009523
06:00+6nw7117698 0.1 1008929
09:00+5nnw1014630 0.6 10101446
12:00+6nw81175100 0.3 10141174
15:00+5nnw71077100 0.4 10131007
18:00+6nw7968100 0.4 10131083
21:00+6wnw777196 0.0 1012905